Location: Harwich
(41.7160°N, 69.9939°W)
Time: 05:49:14
(UTC+02:00)

Courier 1B Rocket - Visible Passes

Search period start: 23 June 2024 00:00
Search period end: 03 July 2024 00:00
Orbit: 920 x 1201 km, 28.2° (Epoch: 22 June)

Date Brightness Start Highest point End Pass type
(mag) Time Alt. Az. Time Alt. Az. Time Alt. Az.
23 Jun 6.6 08:31:15 18° SSE 08:31:15 18° SSE 08:35:03 10° ESE visible
23 Jun 6.3 10:17:44 10° SW 10:23:11 26° S 10:28:58 10° ESE visible
24 Jun 6.2 09:20:04 20° SSW 09:22:15 24° S 09:27:39 10° ESE visible
25 Jun 6.4 08:22:35 20° SSE 08:22:35 20° SSE 08:26:13 10° ESE visible
25 Jun 6.2 10:08:55 11° SW 10:13:56 26° S 10:19:33 10° SE visible
26 Jun 6.0 09:11:30 23° SSW 09:13:00 25° S 09:18:24 10° SE visible
27 Jun 6.4 08:14:08 20° SSE 08:14:08 20° SSE 08:17:10 10° ESE visible
27 Jun 6.2 10:00:30 13° SW 10:04:40 24° S 10:10:00 10° SE visible
28 Jun 6.0 09:03:14 24° S 09:03:47 24° S 09:09:02 10° SE visible
29 Jun 6.6 08:06:06 17° SE 08:06:06 17° SE 08:07:59 10° SE visible
29 Jun 6.2 09:52:29 15° SW 09:55:26 21° S 10:00:15 10° SE visible
30 Jun 6.2 08:55:32 22° S 08:55:32 22° S 08:59:31 10° SE visible
01 Jul 6.3 09:45:10 16° SSW 09:46:11 17° SSW 09:50:10 10° SSE visible
02 Jul 6.7 08:48:36 14° SSE 08:48:36 14° SSE 08:49:47 10° SSE visible
